Regional Weather Roundup
Issued by NWS

Home | Current Version | Previous Version | Text Only | Print | Product List | Glossary On
Versions: 1 2 3 4 5 6 7 8 9 10 11 12 13 14 15 16 17 18 19 20 21 22 23 24 25 26 27 28 29 30 31 32 33 34 35 36 37 38 39 40 41 42 43 44 45 46 47 48 49 50
000
ASUS42 KTBW 182210
RWRFL
FLORIDA REGIONAL WEATHER ROUNDUP
NATIONAL WEATHER SERVICE TAMPA BAY RUSKIN FL
500 PM EST THU DEC 18 2014

NOTE: "FAIR" INDICATES FEW OR NO CLOUDS BELOW 12,000 FEET WITH NO
SIGNIFICANT WEATHER AND/OR OBSTRUCTIONS TO VISIBILITY.


FLZ001>010-012>015-112-114-115-182300-
PANHANDLE FLORIDA

CITY           SKY/WX    TMP DP  RH WIND       PRES   REMARKS
PENSACOLA      CLEAR     59  43  55 S5        30.12S
PENSACOLA NAS  MOCLDY    59  45  59 SW3       30.12S
MILTON NAS     MOCLDY    62  41  46 SW3       30.12R
CRESTVIEW      PTCLDY    64  38  38 W3        30.13S
DUKE FIELD     PTCLDY    64  43  46 S3        30.11R
VALPARAISO     PTCLDY    59  47  64 SW5       30.12R
MARY ESTHER    CLEAR     60  42  52 SW5       30.11S
TRI COUNTY     FAIR      62  39  42 CALM      30.12R
PANAMA CITY    FAIR      59  46  62 S7        30.11R
TYNDALL AFB    MOCLDY    59  46  62 SW5       30.12F
APALACHICOLA   PTCLDY    62  49  62 S6        30.12F

STATION/POSITION SKY/WX   TEMP    WIND        PRES    WAVE   SWELL
                          AIR SEA DIR/SP/G            HT/PER HT/PER
                          (F)     (DEG/KT/KT) (MB)    (FT/S) (FT/S)
30.1N   87.6W              61 65  110/  6/  8 1019.3F   1
29.2N   88.2W              67 74  150/  8/ 10 1018.7F   1/ 4
28.7N   86.0W              68 76  240/  2/  4 1020.0R   1
PANAMA CITY BEAC           59 63  250/  5/  6 1019.7R
CAPE SAN BLAS    NOT AVBL
TOWER C                    58     230/  3/  4 1020.1S
28.5N   84.5W              64 71   30/  2/  4 1020.1R   1

$$
FLZ011-016>038-118-127-128-134-139-239-182300-
NORTH FLORIDA

CITY           SKY/WX    TMP DP  RH WIND       PRES   REMARKS
MARIANNA       CLEAR     63  35  35 W3        30.10S
TALLAHASSEE    PTCLDY    61  42  49 W3        30.11S
PERRY          MOCLDY    62  48  61 SW7       30.11S
CROSS CITY       N/A     61  46  57 W7        30.11R
LAKE CITY      FAIR      61  43  51 CALM      30.10S
GAINESVILLE    PTCLDY    62  45  53 CALM      30.10F
MAYPORT NAS    MOCLDY    60  45  57 VRB5      30.09S
JACKSONVILLE   CLOUDY    59  45  59 SW5       30.09S
JAX NAS        MOCLDY    65  44  46 NW5       30.10S
JAX CRAIG      CLOUDY    61  43  51 W3        30.09S
JAX CECIL      CLEAR     63  45  51 NW5       30.10S
FERNANDINA BEA FAIR      63  46  55 CALM      30.08S
ST AUGUSTINE   MOCLDY    61  47  59 W3        30.10F

STATION/POSITION SKY/WX   TEMP    WIND        PRES    WAVE   SWELL
                          AIR SEA DIR/SP/G            HT/PER HT/PER
                          (F)     (DEG/KT/KT) (MB)    (FT/S) (FT/S)
SHELL POINT                57     170/  8/  9   N/A
KEATON BEACH               56     250/  7/  7 1020.0R
CEDAR KEY                  59     300/  6/  9 1020.4F
FERNANDINA                 59 58  230/  3/  5 1018.3F
30.7N   81.3W                 61                N/A     1/10
MAYPORT                    60 60  270/  6/  7   N/A
31.4N   80.9W              55 58  220/  6/  6 1018.6R   1
ST AUGUSTINE               61     290/  3/  4 1019.7F

$$
FLZ040-043>046-052-053-057-058-063-144-182300-
INTERIOR CENTRAL FLORIDA

CITY           SKY/WX    TMP DP  RH WIND       PRES   REMARKS
OCALA          CLEAR     64  43  45 NW5       30.11S
THE VILLAGES     N/A     64  46  52 CALM      30.01R
LEESBURG       CLOUDY    65  49  56 CALM      30.11S
SANFORD        MOCLDY    66  45  46 N7        30.09S
ORLANDO EXEC   MOCLDY    67  45  45 W7        30.09S
ORLANDO INTL   MOCLDY    67  45  45 NW7       30.10S
KISSIMMEE      CLEAR     70  48  46 NW6       30.10S
WINTER HAVEN   CLEAR     68  46  45 CALM      30.10F
LAKELAND       PTCLDY    66  48  52 NW6       30.10S
BARTOW         MOCLDY    66  46  48 W6        30.10S
OKEECHOBEE     CLEAR     68  46  45 W5        30.09S

$$
FLZ041-047-054-059-064-141-147-182300-
EAST CENTRAL FLORIDA

CITY           SKY/WX    TMP DP  RH WIND       PRES   REMARKS
ORMOND BEACH   CLEAR     63  48  59 CALM      30.11R
DAYTONA BEACH  MOCLDY    64  47  53 NW5       30.11R
DELAND         MOCLDY   N/A N/A N/A NW3       30.11S
JFK SPACE CTR  PTCLDY    64  50  61 NE6       30.10R
TITUSVILLE     PTCLDY    64  50  59 NE8       30.09S
CAPE CANAVERAL PTCLDY    64  51  61 NE3       30.09S
PATRICK AFB    CLEAR     65  51  61 NE6       30.09S
MELBOURNE      CLEAR     65  51  60 E7        30.09R
VERO BEACH     CLEAR     65  48  54 N5        30.10R
FT PIERCE      CLEAR     66  49  54 N5        30.09R
STUART         PTCLDY    72  41  33 NW7       30.09S

STATION/POSITION SKY/WX   TEMP    WIND        PRES    WAVE   SWELL
                          AIR SEA DIR/SP/G            HT/PER HT/PER
                          (F)     (DEG/KT/KT) (MB)    (FT/S) (FT/S)
28.5N   80.2W              66 76  320/  8/ 12 1019.0F
28.9N   78.5W              71 76  320/  6/  8 1018.3R   2/ 5   2/ 5
TRIDENT PIER               66 65   30/  5/  6 1018.6R
28.4N   80.5W                 66                N/A     1/10
27.6N   80.2W                 76                N/A     2/11

$$
FLZ050-056-061-142-242-148-248-149-249-151-251-155-255-
160-260-182300-
WEST CENTRAL FLORIDA

CITY           SKY/WX    TMP DP  RH WIND       PRES   REMARKS
CRYSTAL RIVER  FAIR      59  46  63 W5        30.12R
INVERNESS      FAIR      61  46  59 CALM      30.12R
BROOKSVILLE    PTCLDY    60  46  59 NW7       30.12S
ZEPHYRHILLS    FAIR      64  46  52 NW6       30.11R
CLEARWATER     PTCLDY    63  54  72 NW8       30.11R
TAMPA INTL     MOCLDY    65  51  60 NW9       30.11R
TAMPA EXEC     CLEAR     68  52  56 NW5       30.10S
PLANT CITY     CLEAR     68  48  49 NW3       30.12R
MACDILL AFB    PTCLDY    65  58  76 NW6       30.11S
PETER O KNIGHT PTCLDY    66  55  68 W6        30.11R
ST PETERSBURG  PTCLDY    64  55  72 VRB3      30.09S
SARASOTA       CLEAR     65  54  67 N8        30.08F
VENICE         FAIR      64  57  77 NW9       30.10F

STATION/POSITION SKY/WX   TEMP    WIND        PRES    WAVE   SWELL
                          AIR SEA DIR/SP/G            HT/PER HT/PER
                          (F)     (DEG/KT/KT) (MB)    (FT/S) (FT/S)
CEDAR KEY                  59     300/  6/  9 1020.4F
28.5N   84.5W              64 71   30/  2/  4 1020.1R   1
27.3N   84.3W                 77                N/A     1/ 7
CLEARWATER BEACH           60 64  350/ 10/ 11 1019.4S
MIDDLE TAMPA BAY           63     310/  6/  8 1019.5F
VENICE                     64 65  310/  8/  9 1018.8F

$$
FLZ066-069-070-075>078-162-262-165-265-182300-
SOUTHWEST FLORIDA AND KEYS

CITY           SKY/WX    TMP DP  RH WIND       PRES   REMARKS
PUNTA GORDA    CLEAR     70  54  56 NW7       30.10S
FT MYERS       CLEAR     70  57  63 W10       30.09R
SOUTHWEST INTL CLEAR     69  56  62 W6        30.09S
NAPLES         CLEAR     69  57  65 NW5       30.09S
MARCO ISLAND   PTCLDY    70  57  64 NW7       30.09S
MARATHON       CLEAR     69  63  81 N7        30.07F
KEY WEST NAS   PTCLDY    71  63  75 N7        30.07F
KEY WEST INTL  CLEAR     72  64  76 NE7       30.07F

STATION/POSITION SKY/WX   TEMP    WIND        PRES    WAVE   SWELL
                          AIR SEA DIR/SP/G            HT/PER HT/PER
                          (F)     (DEG/KT/KT) (MB)    (FT/S) (FT/S)
VENICE                     64 65  310/  8/  9 1018.8F
NAPLES                     66 73  330/  5/  6 1019.5R
26.0N   85.6W              73 77   60/  6/  8 1018.6R   1/ 7   2/ 7
DRY TORTUGAS               71      80/  9/ 10 1018.2F
NW FL BAY                  69     340/  8/ 10 1019.0S
SAND KEY                   69      30/ 12/ 13 1018.1F
SOMBRERO KEY               72      30/  6/  7 1018.8F
LONG KEY                   70 70  330/  4/  4 1019.3F
MOLASSES REEF              74 77  100/  5/  6 1018.1F

$$
FLZ067-068-071>074-168-172>174-182300-
SOUTHEAST FLORIDA

CITY           SKY/WX    TMP DP  RH WIND       PRES   REMARKS
W PALM BEACH   PTCLDY    72  56  57 W9        30.07R
FT LAUDER-EXEC CLEAR     75  57  53 VRB3      30.06F
FT LAUDERDALE  PTCLDY    75  57  53 NW6       30.06S
POMPANO BEACH  CLEAR     76  55  48 NW7       30.07S
PEMBROKE PINES CLEAR     76  56  49 CALM      30.07F
OPA LOCKA      CLEAR     75  55  49 W7        30.07S
MIAMI          PTCLDY    76  56  49 VRB3      30.07S
WEST KENDALL   CLEAR     75  59  57 NW3       30.07S
HOMESTEAD      CLEAR     74  61  65 E5        30.07S

STATION/POSITION SKY/WX   TEMP    WIND        PRES    WAVE   SWELL
                          AIR SEA DIR/SP/G            HT/PER HT/PER
                          (F)     (DEG/KT/KT) (MB)    (FT/S) (FT/S)
PORT EVERGLADES            76     320/  6/  7 1017.8
VIRGINIA KEY               74 73  130/  3/  5 1018.6S
LAKE WORTH                 74 76  280/  4/  7 1018.1S
FOWEY ROCKS                74 76  110/  4/  5 1018.5S


USA.gov is the U.S. government's official web portal to all federal, state and local government web resources and services.